Theta_e
300 305 309 314 314 313 313 313 313 311 311 309 308 307 305 304 305 304 307 302 301 294
299 302 306 309 315 314 314 313 312 312 310 308 307 305 304 303 302 301 303 300 299 298
296 300 303 305 310 313 313 312 310 310 309 306 306 305 302 301 300 300 301 298 298 299
294 295 295 302 306 313 312 311 309 308 307 305 302 301 300 298 296 296 296 294 293 293
293 294 295 293 302 307 311 310 308 307 306 304 302 300 299 295 294 293 291 291 294 293
292 292 293 293 293 303 310 309 306 305 304 302 301 299 299 297 295 294 294 292 292 293
291 292 292 292 292 295 307 307 305 305 304 302 301 299 299 297 296 294 293 292 292 291
289 291 291 291 291 292 303 305 303 303 303 302 301 299 299 298 297 295 292 291 291 291
288 289 289 290 291 291 300 301 300 300 301 300 299 296 299 299 296 295 293 291 290 290
286 287 288 289 290 291 298 298 298 299 300 299 299 298 298 296 298 295 295 292 290 289
284 285 286 288 290 291 297 296 297 296 296 296 297 298 297 295 297 294 294 293 291 290
283 283 284 287 290 290 293 294 294 292 292 293 293 296 297 295 293 292 291 291 291 291
280 281 284 288 289 289 291 292 293 291 291 292 292 294 296 295 294 291 291 291 290 290
278 280 284 288 289 289 290 292 290 290 290 291 291 291 295 296 294 292 291 290 289 290
Wind_Speed
19 11 13 18 16 15 16 15 19 18 18 17 17 15 15 12 11 11 11 16 12 7
20 14 15 20 18 19 19 16 18 20 19 19 18 17 16 12 13 11 11 12 12 11
19 17 18 17 20 23 22 21 19 19 19 19 18 19 18 12 13 14 12 8 13 12
16 16 19 18 17 19 24 23 21 21 19 19 20 19 18 16 16 17 14 12 12 12
8 15 16 16 21 19 22 24 23 22 21 19 19 20 20 18 17 19 18 17 17 16
12 11 17 17 18 22 19 24 22 23 22 20 19 19 20 21 20 20 20 20 20 18
14 13 14 16 18 26 16 24 22 23 23 22 19 18 19 19 18 18 18 18 18 17
16 11 11 15 15 23 13 17 21 21 21 20 20 17 20 18 18 19 16 16 16 17
16 10 10 12 15 20 14 13 17 21 22 20 15 23 29 24 18 17 18 16 15 14
15 10 10 11 13 16 15 13 17 19 20 20 19 28 30 29 18 18 18 17 15 13
14 9 11 11 12 15 14 15 15 17 18 17 16 27 31 30 18 16 17 19 19 19
14 12 14 13 12 11 11 13 14 14 16 17 15 26 31 27 17 16 17 15 16 18
17 19 16 14 13 8 9 11 11 13 15 17 15 24 29 27 13 14 13 13 14 20
16 16 18 13 9 8 11 12 13 15 14 16 17 18 31 33 16 14 13 12 12 12
Wind_Direction
310 288 277 257 192 189 187 191 181 186 177 176 168 173 170 177 180 179 182 185 182 173
318 305 292 278 237 188 182 186 185 188 182 179 174 173 173 169 174 175 183 184 182 188
321 329 302 288 276 196 177 177 175 184 183 181 179 173 170 168 177 179 184 176 186 192
319 315 321 293 280 248 175 177 172 181 184 185 180 177 173 171 169 178 175 176 180 192
300 308 304 324 306 277 184 176 173 178 183 183 188 179 176 174 175 176 170 176 185 191
288 290 294 317 316 282 215 168 175 175 179 182 185 186 186 185 181 183 184 178 183 185
282 284 292 299 311 304 239 168 174 179 181 180 180 190 190 187 188 189 183 182 185 178
280 278 287 288 303 304 220 186 172 176 182 182 182 184 191 190 193 186 182 181 182 184
273 257 258 273 282 305 211 186 170 177 179 183 186 186 187 188 189 189 182 185 182 181
257 253 264 268 277 294 232 177 174 180 183 186 188 186 186 187 192 189 184 186 181 174
270 257 275 270 266 287 240 180 180 183 186 186 191 187 184 184 186 189 188 188 177 179
283 274 279 265 260 281 236 190 183 181 180 187 189 188 185 179 181 186 185 186 182 180
268 264 274 258 252 270 219 201 178 180 185 188 186 189 189 181 185 181 182 183 185 187
271 273 261 247 241 259 215 194 192 186 186 188 189 189 190 187 186 177 178 179 180 184